Wind_Speed
9 8 10 13 14 15 18 18 18 18 18 17 18 18 18 18 19 18 16 17 18 18 18 17 18 17 16 16 15 14 12 11 9 8 7 7 7 6 6 6 6 5 4 3 3 1 0 1 2 2 3 4 4 5 5 5 6 6 6 6 8 8 9 11 11 11 12 11 11 11 11 11 12 12 12 12 11 11 12 12 13 14 15 15 16
9 10 10 12 14 16 18 18 18 18 18 19 19 19 18 17 18 18 18 18 19 20 19 19 19 18 18 17 16 15 14 12 11 10 9 9 8 7 7 6 6 5 4 3 3 2 1 1 1 1 2 4 5 6 6 5 7 7 6 7 8 8 9 11 12 12 12 12 11 12 12 12 12 11 11 11 11 12 13 13 13 14 15 15 15
9 10 9 11 13 14 15 17 17 18 19 20 21 20 19 18 18 19 19 19 19 20 20 20 20 19 19 18 18 17 15 14 13 11 11 11 9 9 8 7 6 5 4 3 2 2 1 2 1 1 2 3 4 6 6 6 7 7 8 8 9 10 10 11 12 13 13 13 13 13 12 12 12 12 12 12 13 13 15 16 15 15 15 15 15
7 8 8 10 12 11 11 12 14 16 17 18 19 18 16 16 17 18 18 17 19 21 21 22 22 21 20 19 19 18 17 16 14 13 13 12 11 10 9 8 7 6 5 4 3 2 2 2 2 2 3 3 4 5 5 6 7 8 9 9 9 10 10 11 12 13 14 14 14 14 14 14 13 13 13 13 14 14 15 15 15 15 15 15 16
3 2 4 7 9 8 9 10 13 16 16 16 15 15 15 16 16 17 18 18 20 22 23 23 24 23 22 22 21 19 19 18 16 15 14 13 12 11 10 9 8 7 5 4 3 3 3 3 3 3 3 4 4 5 5 6 8 9 10 10 11 11 11 12 13 14 15 16 16 15 15 15 15 15 14 14 15 14 14 15 15 15 15 15 15
7 7 4 4 5 5 7 9 12 15 16 16 16 17 17 18 18 20 21 21 21 22 24 25 25 25 24 23 22 21 20 19 18 17 15 14 13 11 10 9 8 7 5 4 4 4 4 4 4 4 4 5 5 6 7 8 9 9 10 11 12 12 12 13 14 15 16 17 17 16 15 15 15 15 14 14 14 15 15 15 15 15 15 15 15
12 10 8 6 6 7 7 9 12 14 15 15 17 17 18 18 20 20 20 20 21 23 24 24 25 25 24 23 23 22 21 20 18 17 16 15 13 12 11 9 8 7 6 5 5 4 4 4 4 4 5 5 5 6 7 8 9 10 11 11 11 12 13 14 15 16 17 18 17 16 16 15 14 15 14 13 14 15 15 15 14 13 13 13 13
10 9 8 8 8 8 6 7 9 11 13 14 16 17 18 19 20 20 19 20 22 22 23 23 23 24 25 25 24 22 22 21 19 18 17 15 14 12 11 9 8 7 6 6 5 5 5 5 4 4 5 5 7 7 8 9 10 11 11 11 12 13 14 14 15 16 17 17 17 16 16 15 15 15 14 13 13 14 13 13 13 12 11 12 13
6 6 6 7 7 6 6 7 7 8 10 12 14 16 17 18 19 19 19 19 20 21 22 23 23 23 25 25 24 23 22 20 20 19 17 15 13 12 10 9 8 7 6 5 5 5 4 4 5 5 5 6 7 8 8 10 11 12 12 12 13 14 15 15 15 16 16 17 17 17 16 16 15 15 14 13 12 12 11 12 13 14 14 15 15
5 5 5 4 5 5 6 7 7 8 9 10 11 13 15 17 18 19 19 19 19 19 19 21 22 21 21 23 24 23 21 20 21 20 18 15 12 10 9 8 7 6 6 5 5 4 4 5 6 8 8 8 7 7 9 9 10 12 13 14 14 15 15 16 16 17 17 17 17 17 16 16 15 15 15 15 14 14 13 13 14 14 14 15 15
6 6 6 5 6 6 7 7 8 8 9 10 10 11 13 14 16 17 17 18 16 16 21 24 25 24 22 23 23 21 20 22 23 21 17 14 11 9 8 7 7 6 6 5 4 4 5 6 6 8 10 8 8 10 12 12 11 12 14 15 16 17 18 18 18 17 18 18 18 18 17 18 17 16 17 16 16 15 14 14 14 14 13 13 12
8 8 8 9 9 9 8 8 9 9 9 10 10 10 11 12 14 14 14 15 16 18 22 25 26 26 24 21 18 16 17 21 20 16 13 11 9 8 7 7 7 6 6 5 5 5 6 7 8 8 9 10 11 12 13 12 12 14 15 16 18 20 21 22 22 20 20 19 20 20 19 19 18 17 16 16 16 15 15 15 15 14 15 14 13
8 8 9 10 10 10 10 10 10 10 10 10 9 9 9 10 11 11 12 15 17 18 21 23 24 23 22 21 19 17 16 17 15 12 10 8 7 7 7 7 6 6 6 5 6 7 8 8 9 9 9 11 12 12 11 12 13 15 17 18 19 19 20 22 24 25 25 23 23 22 21 20 20 19 17 16 16 16 16 16 16 16 16 16 16
9 9 10 10 10 10 10 10 10 11 11 11 10 9 9 9 10 11 12 14 17 18 19 21 20 20 21 22 21 18 17 15 14 11 9 7 7 7 7 6 5 5 6 6 7 8 9 9 10 10 11 11 12 12 12 13 15 16 16 17 18 18 19 20 21 24 27 27 27 26 24 23 23 22 19 17 19 20 20 19 18 18 19 20 20
10 10 11 10 10 10 10 10 11 11 12 11 10 9 9 9 10 11 12 13 16 17 17 19 19 19 20 20 18 15 14 14 13 11 9 8 7 7 6 6 5 6 7 8 9 9 10 10 11 12 12 12 12 13 15 16 16 17 17 18 18 19 19 20 20 22 24 26 27 27 25 25 25 24 23 21 21 22 23 23 22 22 22 23 23
12 13 12 11 11 11 11 11 11 11 12 11 11 10 9 10 10 11 12 13 15 16 17 18 19 18 17 16 15 14 14 14 12 10 9 9 7 5 5 5 6 7 8 8 10 10 11 11 12 12 13 13 14 16 17 18 18 18 19 19 19 19 19 19 21 23 25 27 28 28 28 28 26 25 24 23 22 21 21 23 24 23 23 24 24
14 15 14 13 12 12 13 13 12 12 11 11 11 11 10 11 12 13 14 14 16 16 16 17 17 16 16 15 14 12 13 13 11 9 9 8 6 4 4 6 7 8 8 9 10 11 12 13 13 14 15 16 16 17 18 19 18 19 20 20 20 21 21 20 21 23 25 27 28 30 33 34 34 33 32 31 30 26 23 23 23 23 24 23 21
15 15 14 13 13 14 14 14 13 12 12 12 11 11 11 12 13 14 16 16 16 17 17 17 17 17 18 18 14 11 11 11 9 8 8 7 4 4 5 7 8 9 9 10 11 12 13 14 16 17 18 18 18 18 19 19 18 18 20 22 23 24 23 22 22 24 25 26 27 28 30 32 34 36 37 37 38 35 32 29 27 27 28 25 22
15 15 14 13 13 13 13 14 13 12 12 12 12 12 12 13 14 16 17 17 17 17 16 17 18 18 18 18 16 12 10 9 7 7 6 5 4 4 6 8 8 9 11 11 12 13 13 15 17 19 19 18 17 17 18 17 17 18 22 25 26 26 25 24 25 25 25 26 26 26 28 28 29 30 32 33 35 36 36 35 32 32 32 29 26
16 15 14 13 13 13 13 14 13 13 13 13 13 13 13 14 15 17 18 17 17 17 16 19 21 18 16 16 14 11 10 8 6 5 4 4 4 5 7 8 10 11 12 12 13 14 15 15 17 18 17 15 15 16 17 17 18 20 23 26 26 26 25 25 25 25 26 27 27 27 27 27 27 27 27 28 30 31 34 35 35 35 34 31 29
17 16 15 14 14 13 13 14 14 13 13 14 14 14 14 15 16 17 16 15 15 16 18 22 22 18 16 15 12 10 10 8 5 4 3 3 4 5 6 8 10 11 12 14 15 15 16 17 16 18 18 16 17 18 20 21 23 24 26 27 28 28 28 28 27 27 27 28 28 28 27 27 26 27 27 27 28 28 30 32 33 34 35 33 31
18 17 16 16 15 15 15 14 14 13 14 14 15 16 15 15 16 17 15 15 17 19 21 23 22 19 16 13 10 9 10 7 4 2 2 3 5 6 6 7 9 10 12 14 15 16 18 18 18 20 21 21 22 24 25 26 28 29 29 30 31 31 31 30 29 28 27 27 27 26 26 25 25 26 26 27 27 27 27 29 30 32 34 35 33
18 18 17 16 16 16 15 15 14 13 14 15 16 17 15 12 12 13 13 15 19 22 23 22 20 16 14 10 8 8 8 6 4 2 1 3 4 5 6 7 9 9 11 14 16 17 18 19 21 24 26 26 27 28 27 28 28 28 28 29 30 30 30 30 29 28 27 27 27 26 26 25 25 26 26 25 25 25 26 26 27 29 32 33 34
19 18 17 16 17 16 16 16 15 15 16 17 16 14 12 10 10 12 15 19 22 23 22 20 17 13 11 10 9 9 8 5 2 1 2 3 4 5 6 9 11 13 13 14 16 16 18 20 24 27 28 29 28 27 26 26 26 25 25 25 26 27 28 27 27 26 26 26 27 26 26 25 26 26 25 24 25 25 25 26 27 28 29 30 31
20 19 18 17 17 17 17 17 16 16 17 15 13 12 14 14 13 17 22 25 24 20 18 16 14 12 10 9 8 7 7 5 1 2 4 5 5 7 9 10 12 14 15 14 14 16 18 21 24 25 27 27 26 25 25 24 23 23 23 25 25 25 24 24 24 24 25 25 25 25 25 25 25 25 25 25 26 26 26 26 27 27 28 30 30
21 20 19 18 17 17 18 17 17 16 13 11 11 14 16 17 19 24 26 25 24 22 18 14 13 12 10 9 7 6 5 4 3 1 2 4 6 8 11 11 11 14 15 14 14 16 18 20 22 24 25 24 23 23 23 23 23 23 23 24 24 23 22 23 23 23 24 24 25 25 25 24 25 25 25 26 26 26 25 26 26 27 28 28 28
24 23 21 19 17 18 19 17 14 11 10 10 11 13 19 24 26 27 25 22 21 21 18 14 12 11 10 9 8 6 5 4 3 2 3 5 6 8 9 9 10 12 13 13 14 16 17 19 22 22 22 21 20 21 22 22 22 21 21 20 21 21 21 22 23 24 25 26 26 26 26 25 26 25 24 25 26 25 25 26 27 27 26 25 25
25 24 22 20 19 19 17 14 12 11 11 13 15 18 23 28 29 27 26 25 23 20 17 14 12 11 10 8 7 6 5 5 4 3 4 5 6 7 7 8 10 10 11 13 15 16 17 19 19 18 18 18 19 19 20 20 19 19 20 20 20 21 22 23 24 25 25 27 27 27 27 26 26 25 24 25 27 26 26 27 28 29 27 24 22
26 25 23 20 20 17 13 13 15 15 16 18 18 18 19 22 24 24 24 24 24 22 18 15 13 10 9 8 6 5 5 4 2 4 5 6 7 7 8 9 10 10 11 14 15 15 16 16 16 16 17 17 18 19 19 20 20 20 20 20 21 21 21 22 23 24 24 24 25 27 26 25 24 24 24 26 28 28 27 27 28 28 27 25 23
26 26 23 21 20 15 12 15 18 19 21 21 20 20 21 21 22 22 22 22 22 20 16 14 13 11 9 8 7 6 5 3 2 4 5 6 7 8 8 9 9 9 11 12 13 13 15 15 15 16 17 18 19 19 20 21 21 21 21 21 21 21 21 22 22 23 24 24 24 25 25 23 23 24 24 26 28 28 28 28 27 27 26 25 23
24 24 22 21 18 13 14 18 20 20 21 21 21 21 21 20 20 22 22 21 19 16 14 14 14 12 11 10 8 5 4 3 3 4 4 5 6 8 8 8 8 9 11 11 11 12 14 15 15 16 17 18 19 20 20 21 22 22 22 21 21 21 21 22 22 22 23 24 24 24 23 23 23 23 23 24 25 25 25 26 26 26 27 26 24
22 22 20 18 16 15 18 21 21 20 18 19 20 20 19 19 18 18 19 20 18 16 15 13 12 11 11 12 9 6 5 5 4 4 4 5 7 7 7 7 9 11 12 10 11 13 14 15 16 17 18 19 19 20 21 21 22 22 22 22 22 21 21 22 23 24 24 24 24 23 23 23 22 22 22 22 22 22 21 22 23 23 23 24 23
25 22 17 14 16 20 23 23 25 25 21 18 19 20 21 21 19 18 20 21 19 16 14 12 10 10 10 10 9 7 6 6 6 5 6 7 8 8 8 9 10 11 11 11 12 13 14 15 16 17 18 19 20 21 21 21 22 22 22 22 23 23 23 23 25 25 25 24 24 24 23 23 22 21 21 21 21 20 20 20 20 20 20 20 21
21 19 15 15 19 24 25 24 25 26 23 19 19 21 22 23 21 19 19 19 17 16 15 12 11 10 9 9 8 8 7 7 7 7 7 9 10 10 9 9 10 10 11 12 13 14 15 16 16 17 18 19 20 21 21 21 22 22 22 23 23 24 24 24 24 24 24 23 23 23 23 22 22 21 20 20 20 20 19 18 18 18 19 19 19
17 18 19 22 25 26 26 24 22 22 24 24 23 22 21 22 21 20 18 16 15 15 14 12 11 10 9 9 8 8 7 7 6 6 8 11 12 11 10 10 11 12 13 13 14 15 16 16 16 17 19 20 21 22 22 22 22 22 23 23 24 25 25 24 24 24 24 23 22 22 22 22 22 22 21 20 20 19 18 18 18 17 18 18 18
23 23 23 24 25 26 29 29 27 28 30 29 25 21 20 19 18 17 16 15 14 14 13 13 12 10 8 7 7 7 6 5 5 7 10 12 14 12 11 11 12 13 14 14 15 15 16 16 17 18 20 21 22 22 21 21 22 23 24 25 26 26 25 24 24 24 23 22 22 23 23 22 22 21 20 20 20 19 19 19 18 17 18 18 17
29 27 25 26 27 30 32 33 32 32 31 27 22 20 19 18 17 16 15 13 13 13 13 13 13 10 8 6 6 5 4 3 4 7 10 13 14 13 11 11 12 14 14 15 16 16 16 17 18 19 20 22 22 22 22 22 23 23 25 27 26 25 25 25 26 26 26 24 23 23 23 23 22 21 20 20 19 19 18 18 18 17 18 19 18
30 28 28 29 30 30 30 30 31 29 25 21 19 19 18 16 15 14 13 13 13 12 12 12 11 9 8 7 6 4 3 1 2 5 7 11 13 12 10 10 12 14 14 15 16 16 17 18 18 19 21 22 22 22 24 25 24 23 24 26 25 24 25 26 25 25 24 24 23 22 22 22 22 21 20 20 19 17 17 17 17 16 16 17 17
29 29 29 27 26 26 28 28 25 22 19 17 17 17 15 14 13 12 12 13 12 11 10 9 8 7 6 6 4 3 3 2 1 3 5 8 11 10 9 10 12 13 14 16 17 17 17 18 18 20 21 21 21 23 26 26 24 22 23 24 24 25 25 24 22 21 22 22 22 20 19 19 19 18 18 18 18 17 16 16 16 16 15 15 16
25 25 23 20 19 21 25 23 19 16 16 16 16 14 12 11 11 11 11 11 11 9 9 8 7 7 6 5 3 1 0 1 3 3 4 7 8 8 8 10 11 13 14 16 17 17 17 18 19 20 20 20 22 25 27 26 24 24 23 24 24 25 25 24 22 21 21 20 20 19 18 17 17 16 16 17 17 16 15 15 15 15 15 14 14
20 19 17 15 16 18 18 17 16 15 15 14 13 12 10 9 9 10 10 10 10 9 9 8 8 8 7 5 4 4 2 2 2 3 3 5 6 7 7 9 11 13 14 15 16 17 17 18 20 20 19 21 25 28 28 27 26 25 24 24 24 25 26 24 22 21 20 20 19 18 17 17 16 16 15 14 14 14 14 13 13 14 14 13 12
15 16 15 16 17 17 15 14 14 13 12 10 10 9 8 8 9 10 10 9 9 9 9 8 8 7 5 3 3 4 3 2 2 3 3 4 5 6 7 9 10 12 13 14 16 17 16 18 20 19 18 22 27 30 29 27 25 24 24 24 25 26 26 25 23 21 19 18 18 17 18 18 16 15 12 10 10 11 11 11 11 12 11 11 10
15 16 17 18 17 15 13 13 13 12 11 10 10 9 8 9 10 10 9 9 8 8 8 7 7 6 3 1 1 3 3 2 2 2 3 3 4 5 7 8 10 11 12 14 16 16 16 19 20 19 19 24 29 30 29 28 25 24 24 25 25 26 25 25 24 22 19 17 17 18 18 17 14 10 7 6 7 8 9 9 9 9 8 8 9
18 19 20 20 18 15 14 13 14 14 13 12 12 11 10 9 9 9 9 8 7 7 7 6 6 5 4 2 2 3 3 3 2 2 3 4 4 5 6 8 9 11 12 14 15 16 17 18 19 20 23 27 29 30 30 30 28 26 25 25 25 25 25 25 25 23 20 18 18 17 16 13 10 6 3 4 5 6 6 7 7 7 8 8 9
17 17 18 17 17 15 15 14 14 14 12 12 11 11 10 10 9 9 8 7 6 7 6 5 5 5 5 4 3 3 2 2 2 2 3 4 4 5 6 7 9 10 12 13 15 16 17 18 18 20 25 29 30 30 32 31 29 27 25 25 25 25 25 25 23 20 18 17 15 14 12 10 7 4 1 3 5 7 7 7 7 8 8 9 10
17 17 17 17 16 15 14 14 13 13 12 11 10 10 10 10 9 8 7 7 6 6 5 4 4 4 4 4 2 2 2 2 2 2 3 4 5 5 6 7 8 9 11 13 14 16 17 17 17 20 25 29 30 30 32 33 30 28 27 26 26 25 24 22 19 17 16 15 13 10 9 8 5 3 2 3 6 7 7 7 8 9 10 11 12
18 17 17 17 16 15 15 14 13 13 12 11 10 10 10 9 8 8 7 7 6 5 4 3 3 4 5 3 2 2 2 2 2 2 3 4 5 5 6 6 7 9 10 12 14 15 17 17 16 18 24 29 30 30 32 34 34 32 30 27 26 25 22 19 17 16 15 14 12 9 7 6 5 4 3 5 6 8 9 10 11 12 12 12 14
17 16 16 16 15 14 14 13 13 13 12 11 11 10 9 8 7 7 6 6 6 5 4 4 5 5 5 3 3 2 2 2 2 3 4 4 5 5 6 6 7 8 9 11 13 14 16 17 17 17 21 28 30 30 31 34 35 34 32 28 25 23 21 18 17 16 14 13 11 10 8 8 8 8 7 7 7 9 11 11 12 14 16 17 18
17 16 16 16 15 14 13 12 12 12 11 11 10 10 9 8 7 7 6 6 6 5 5 6 6 6 5 4 3 3 3 3 3 3 4 5 5 5 6 6 6 7 8 10 13 14 15 17 19 18 20 26 30 31 31 33 35 36 34 29 24 21 20 18 17 16 15 13 12 11 10 11 12 12 12 12 12 12 12 12 13 14 18 22 24
17 16 16 15 15 14 13 13 12 12 11 10 10 9 9 8 8 7 7 7 7 7 7 7 6 6 5 4 4 4 3 4 3 3 4 5 5 5 6 6 6 7 7 9 12 13 14 16 19 18 19 24 30 32 32 32 34 36 35 30 23 21 21 19 17 17 17 16 14 13 13 14 14 14 13 14 15 14 13 13 14 15 18 21 23
17 16 16 15 14 13 13 13 12 12 11 10 10 9 9 8 8 8 8 8 7 7 7 7 7 6 5 4 4 4 4 4 4 4 5 5 5 5 6 6 6 6 7 8 10 12 13 15 18 18 19 24 30 33 33 33 34 35 35 30 24 21 21 20 18 18 18 19 18 17 17 17 16 14 12 12 14 16 15 15 15 16 17 19 20
Wind_Direction
240 231 215 214 219 222 225 227 226 226 226 228 229 228 224 219 220 220 210 202 194 188 189 189 187 186 183 181 179 175 174 171 169 168 163 155 149 148 149 151 151 148 151 157 156 157 237 299 292 291 296 293 288 281 273 271 273 269 267 271 272 271 272 275 278 282 284 286 287 287 289 291 289 285 284 283 278 275 275 273 273 273 274 273 271
256 250 237 229 228 228 231 233 232 231 229 229 231 233 230 223 219 216 212 207 200 194 192 191 190 189 186 184 183 180 178 176 174 173 170 165 160 160 161 160 159 156 158 164 167 174 201 265 284 277 278 285 286 288 286 283 282 277 273 276 278 275 274 277 282 287 288 288 289 289 289 287 286 287 290 287 282 280 277 274 273 272 272 271 269
260 257 254 249 246 243 241 240 240 238 234 233 234 232 230 226 221 218 214 210 205 200 196 192 191 191 189 186 183 181 180 177 177 177 174 172 170 169 169 169 168 167 170 176 190 209 230 259 269 264 274 283 287 291 293 290 291 292 286 280 279 276 275 278 280 283 287 290 291 291 290 289 286 287 289 287 284 282 278 276 274 272 271 268 266
257 252 257 259 258 257 256 257 258 255 249 245 241 235 231 227 222 221 218 210 206 203 197 194 193 192 191 188 184 181 180 178 178 179 178 177 176 172 172 173 173 175 180 190 213 238 247 254 258 264 273 283 289 289 288 289 294 297 292 286 279 276 274 273 273 277 282 286 288 290 291 291 289 287 289 289 286 282 278 276 274 271 270 267 265
334 282 265 265 264 266 270 274 273 270 266 262 255 247 240 235 227 224 223 217 210 205 198 194 193 192 190 188 185 183 182 181 180 179 178 178 176 175 174 175 176 177 185 200 220 233 237 242 249 262 272 279 284 287 287 289 292 291 290 289 286 284 281 277 276 276 278 282 284 286 287 286 287 287 286 288 289 287 282 278 275 271 270 268 265
27 31 5 309 296 306 304 290 277 269 263 259 256 251 245 239 231 230 229 222 212 204 200 196 193 191 190 187 186 186 184 183 181 180 179 177 176 175 174 175 178 180 188 202 212 220 227 236 244 252 263 271 274 279 281 281 282 281 282 283 284 285 284 282 281 280 278 279 281 283 282 280 281 282 281 281 285 288 289 286 280 273 268 265 262
32 27 18 4 357 359 338 306 287 276 268 262 258 255 249 244 238 234 230 224 216 209 205 201 194 189 187 186 187 187 185 183 181 180 179 178 177 175 174 175 179 181 185 191 196 205 216 225 237 245 254 264 269 275 279 279 278 275 274 274 275 277 279 278 279 281 281 281 281 281 281 280 277 277 277 277 277 280 282 283 282 276 267 263 261
31 22 19 19 17 10 344 310 294 285 279 273 267 260 255 251 246 240 232 226 222 218 212 204 196 190 185 184 185 185 183 182 180 179 180 179 177 174 173 176 178 179 180 182 186 192 203 215 228 238 247 256 259 264 268 270 274 275 273 273 271 270 272 273 274 275 276 278 279 279 280 280 278 276 277 274 271 273 276 279 284 286 280 273 269
27 22 23 20 10 354 330 311 299 290 283 278 273 267 261 256 252 247 239 230 226 226 218 200 190 188 184 180 181 181 181 182 181 180 177 176 175 172 171 175 178 179 177 179 185 193 206 221 225 229 248 263 258 258 261 260 261 266 270 273 273 271 269 268 270 271 272 273 274 276 277 276 276 277 277 274 272 276 280 280 280 280 278 275 270
20 18 17 10 350 329 317 308 297 290 284 278 274 270 266 262 257 251 246 240 232 224 205 183 176 182 183 180 179 178 179 183 185 182 176 172 170 167 167 172 177 179 180 184 196 211 227 240 239 247 273 290 282 279 285 277 265 261 263 264 266 270 271 270 268 268 269 271 271 272 272 271 271 273 275 276 278 279 278 275 274 274 273 270 267
356 1 360 348 331 318 311 303 296 290 285 280 274 267 263 261 258 255 250 242 224 197 183 181 185 192 194 187 181 176 179 186 189 187 183 178 167 160 165 173 178 185 187 195 215 231 245 259 259 261 274 283 284 289 292 288 281 275 271 265 260 259 262 265 267 267 267 268 269 269 269 270 269 269 270 273 275 274 273 271 270 270 269 268 267
337 344 342 334 327 319 311 307 302 295 285 279 273 265 260 256 253 253 247 232 212 194 193 198 197 194 192 186 173 167 177 186 188 188 189 186 172 163 170 177 182 191 195 205 231 248 256 265 267 268 268 268 277 288 288 287 287 285 282 276 268 261 255 254 257 261 264 267 268 266 265 268 269 267 266 269 270 272 273 270 268 268 266 266 267
326 326 322 320 318 314 309 306 302 296 287 281 271 261 257 253 245 241 237 231 224 215 205 200 195 187 181 174 168 171 183 187 188 192 195 193 179 170 177 184 189 202 208 216 238 251 258 264 267 270 271 271 276 280 282 289 294 292 288 282 275 270 263 256 253 253 256 261 266 265 264 266 268 267 266 268 270 272 273 271 269 268 266 263 264
321 315 309 310 310 308 306 302 297 293 288 280 270 256 250 251 247 240 232 228 229 223 206 193 187 179 175 175 175 182 191 191 191 195 192 183 175 169 177 190 200 216 223 231 245 252 257 262 267 273 275 275 277 277 281 291 295 294 291 284 277 274 272 267 260 254 251 252 256 260 262 263 265 267 268 268 267 267 269 271 271 270 269 269 269
319 314 310 311 312 313 310 304 297 293 287 279 270 259 248 244 247 244 234 224 221 217 202 188 180 175 175 176 171 174 186 188 188 188 182 176 172 167 176 195 215 232 235 241 250 256 261 263 266 274 277 278 279 278 281 289 294 292 289 284 280 276 271 266 262 256 252 249 251 257 261 262 264 266 266 266 267 268 267 267 268 271 273 275 273
320 318 317 318 320 319 315 307 300 293 287 279 267 258 247 239 238 238 234 225 215 205 192 184 180 173 165 158 151 160 179 186 185 183 180 178 172 169 193 216 230 240 244 249 257 261 265 265 267 274 279 283 285 283 283 288 292 291 288 285 282 278 273 270 265 260 257 256 257 260 261 260 261 261 258 259 266 275 275 267 264 265 267 267 267
317 316 317 319 320 319 316 310 302 292 284 274 263 253 245 239 234 230 230 225 213 198 182 178 176 165 152 147 144 152 171 180 183 183 183 185 178 180 219 239 246 251 257 262 267 269 268 266 268 275 282 286 288 286 287 290 292 292 291 288 286 282 278 276 273 270 267 265 265 265 263 261 261 261 260 259 261 270 276 268 259 258 261 261 262
310 311 313 315 315 314 313 308 301 291 282 272 262 250 242 238 234 228 227 226 216 196 175 168 165 158 156 155 146 143 160 171 177 184 189 191 183 199 244 260 264 267 271 272 274 276 274 271 270 274 278 282 284 284 287 291 292 293 294 292 289 286 283 282 281 279 277 275 273 272 269 267 265 263 262 261 259 260 263 260 255 256 259 260 261
303 305 307 307 307 307 306 303 296 288 279 270 260 250 242 239 236 229 225 224 215 197 175 160 154 152 156 154 143 137 146 155 163 177 193 201 200 229 261 274 275 277 280 282 282 281 280 280 281 281 281 282 283 284 285 285 284 288 294 293 288 285 284 283 282 280 279 276 275 273 272 270 267 262 260 259 257 254 254 255 252 253 256 258 258
297 299 299 298 298 297 297 296 290 281 274 267 259 251 244 241 238 231 225 220 211 194 171 154 150 149 147 144 140 136 135 138 147 162 184 212 227 245 265 277 281 284 286 287 287 286 284 285 288 290 290 289 286 286 287 285 281 283 288 287 281 281 283 282 281 281 280 276 274 273 271 269 267 263 260 259 256 251 249 248 247 247 251 254 255
292 291 291 290 289 288 289 289 285 278 270 263 258 251 244 239 237 229 220 209 194 177 159 151 147 141 136 141 148 145 133 128 130 140 169 219 248 261 269 275 281 287 290 289 288 289 289 290 291 293 296 297 294 293 292 289 285 283 282 278 275 276 280 281 280 280 278 275 273 272 270 267 265 263 260 258 257 253 249 246 244 244 246 248 250
287 285 284 284 284 283 283 283 280 273 265 259 256 252 243 236 232 223 208 187 169 157 148 146 144 140 140 145 149 139 128 125 131 146 194 237 256 262 262 263 271 281 289 289 289 290 290 292 292 291 291 293 294 293 291 288 286 284 280 277 275 275 277 278 278 276 274 271 270 268 267 265 263 260 258 257 256 254 252 250 247 245 245 245 247
280 279 277 278 278 276 277 279 276 269 259 251 249 247 239 228 221 212 193 168 153 144 139 140 140 140 143 145 141 130 121 120 130 142 216 254 268 270 268 272 280 287 289 288 290 292 292 294 293 289 288 291 293 293 292 290 289 285 281 280 279 279 278 277 274 272 269 267 266 265 263 262 260 259 257 256 255 254 252 251 250 249 249 249 248
273 271 268 268 269 268 272 276 273 265 255 248 246 241 222 198 183 172 157 143 135 131 132 136 136 137 143 146 144 133 120 116 116 334 304 282 282 285 289 298 301 301 297 293 291 292 292 292 291 290 292 295 297 297 297 294 291 288 285 285 284 282 279 275 270 267 265 262 261 259 257 256 256 255 254 254 255 254 253 252 252 251 252 252 251
267 266 263 260 261 262 266 269 268 264 254 241 227 207 188 172 159 151 145 139 133 130 132 135 135 137 141 140 132 121 111 110 101 339 328 324 319 313 312 313 308 305 303 297 292 293 294 296 297 298 300 301 301 300 298 295 293 292 290 288 285 280 276 272 268 265 262 260 259 256 255 254 253 253 254 255 255 254 253 253 252 251 251 251 252
265 263 260 259 259 258 258 261 263 258 241 212 195 191 182 165 149 143 142 140 139 139 141 143 141 139 140 138 130 120 117 121 125 105 338 344 338 327 325 324 317 312 309 304 303 305 305 305 304 303 302 301 300 299 296 293 292 292 290 287 281 276 273 270 268 266 263 262 261 259 258 258 258 258 258 256 254 252 250 250 251 251 250 250 251
262 261 259 258 255 251 252 254 247 227 203 185 180 178 168 156 146 143 142 141 141 143 146 146 143 142 144 144 137 133 138 135 117 67 9 359 343 330 329 323 316 314 311 309 310 310 306 304 302 300 300 301 301 300 298 295 292 291 290 287 283 279 276 274 272 270 268 267 265 263 263 263 263 261 259 256 253 250 248 247 249 250 249 249 251
257 256 256 253 248 245 245 236 209 186 178 174 163 155 154 150 144 142 144 143 141 142 143 141 145 152 153 146 141 141 138 120 86 25 356 347 338 333 330 320 316 316 310 306 307 306 304 305 304 303 304 305 304 303 302 299 296 294 293 291 287 284 282 279 275 272 271 269 267 265 264 263 261 259 257 256 254 251 248 246 246 247 247 247 248
251 249 249 248 245 242 230 205 186 172 166 160 151 144 145 143 139 141 146 147 145 145 145 145 151 156 146 129 126 124 112 97 42 345 337 339 338 332 323 316 315 313 305 303 306 307 308 309 309 308 309 308 307 307 306 304 302 299 295 294 291 288 285 282 279 276 274 272 269 266 264 262 260 259 258 257 256 254 251 247 245 246 246 245 246
245 242 240 240 240 232 203 184 178 167 157 149 140 137 139 141 142 144 147 148 148 149 150 147 144 139 123 114 117 113 103 88 357 349 353 348 341 332 324 320 320 320 319 317 315 313 312 312 311 310 311 311 311 310 310 308 306 302 299 297 293 289 284 282 280 279 277 274 271 269 266 263 262 261 259 259 259 258 255 250 246 245 244 244 247
238 234 231 231 230 212 181 174 170 161 153 144 136 132 131 133 140 145 146 148 151 153 153 148 142 132 119 116 118 110 93 74 36 25 15 352 341 334 330 331 336 345 348 337 322 317 316 314 313 312 312 312 311 311 310 308 305 303 301 297 293 289 285 281 278 278 276 273 271 268 266 263 261 259 257 256 256 256 255 250 245 243 244 245 245
231 228 223 218 208 185 170 165 156 147 144 140 134 128 119 114 120 131 140 148 154 156 153 146 136 128 122 121 120 108 87 79 70 52 28 6 351 343 347 354 352 354 355 340 320 319 320 315 313 313 313 313 312 311 310 308 305 304 301 296 292 289 285 283 280 278 277 274 272 269 265 263 261 259 257 254 251 250 249 245 241 240 242 243 243
224 219 210 195 181 170 163 157 151 149 149 144 137 132 127 120 114 113 120 130 137 139 136 129 120 120 121 120 116 106 95 89 81 66 43 23 13 11 13 9 358 353 350 338 325 324 323 318 315 315 314 312 311 310 308 306 306 305 301 297 294 291 288 286 285 281 278 275 271 268 266 263 260 258 257 253 248 245 243 240 237 237 238 239 240
209 204 188 165 160 161 157 153 153 155 153 145 135 134 134 132 128 122 120 122 122 120 117 117 119 119 115 109 105 101 101 97 84 65 45 31 29 30 24 10 360 354 346 336 328 326 324 320 319 317 315 312 310 308 307 306 305 304 301 298 296 294 292 290 287 284 280 276 273 270 268 265 262 258 257 254 247 242 238 234 232 233 235 236 236
177 173 164 155 156 157 153 148 147 146 142 136 132 133 137 138 138 140 142 141 135 128 122 121 122 123 119 112 107 102 100 94 74 52 40 34 34 33 23 9 2 355 345 336 330 326 323 321 319 317 315 314 312 311 309 307 306 304 301 300 299 298 295 291 287 284 281 278 276 273 270 268 264 259 256 252 245 237 232 229 227 228 232 235 234
145 143 142 145 149 149 145 143 141 138 137 137 137 139 145 148 149 151 153 149 142 138 134 131 131 132 127 120 115 108 101 87 57 44 42 38 35 29 16 4 357 349 342 337 332 326 323 322 321 319 318 317 315 313 310 308 306 305 302 301 300 299 296 292 288 286 284 280 279 276 273 270 265 259 255 250 243 237 232 228 226 226 229 233 234
128 125 125 130 134 135 136 138 138 136 138 142 145 147 151 155 156 156 154 150 147 145 142 139 140 140 139 138 132 117 101 72 48 48 44 36 29 21 10 359 353 346 342 340 335 330 327 326 325 323 321 318 316 314 311 308 307 305 304 303 301 298 296 295 292 289 286 283 280 278 275 272 267 261 256 250 243 237 231 227 226 227 228 230 231
120 119 120 123 126 129 132 135 137 142 150 155 153 150 152 154 154 152 150 150 151 150 147 148 152 152 149 153 154 150 158 152 65 50 38 25 18 11 3 356 350 347 344 341 338 335 332 330 329 325 321 317 315 314 312 310 308 305 304 304 303 300 300 299 296 292 289 286 284 281 278 274 271 265 259 252 244 236 228 223 222 224 225 226 227
116 119 121 121 124 131 136 138 142 150 156 153 146 144 145 147 147 148 149 151 153 151 147 149 149 138 131 140 157 189 207 191 81 44 27 20 14 7 359 352 348 346 344 341 341 339 336 333 330 325 321 317 315 315 314 313 311 307 305 305 304 304 304 302 299 296 292 289 287 285 281 277 274 270 262 253 243 233 226 221 218 218 221 223 221
111 118 122 122 126 133 138 143 149 152 147 142 141 141 142 145 147 146 146 148 148 147 143 139 130 123 128 142 145 137 123 54 49 41 27 19 13 3 354 347 344 343 343 342 342 341 337 333 330 325 320 318 317 317 316 315 314 312 311 309 308 308 307 305 301 298 296 293 291 290 287 284 280 275 267 255 242 231 223 219 216 217 221 224 223
113 118 121 125 133 137 138 141 144 142 138 138 140 140 141 144 144 141 142 144 143 142 139 132 126 132 146 150 126 100 80 44 39 43 27 15 4 353 345 342 340 341 341 341 341 341 337 331 327 323 320 320 320 320 319 318 317 318 318 316 314 313 311 309 305 301 299 298 296 293 292 291 288 283 273 257 240 228 221 217 217 218 220 224 222
115 117 121 129 135 135 131 127 127 125 121 120 122 124 128 131 130 131 135 137 137 138 134 126 125 134 146 142 112 100 86 57 47 39 16 359 350 343 339 339 340 339 338 337 339 340 335 330 327 325 323 325 327 328 326 323 321 321 321 320 320 318 316 314 312 308 305 303 300 300 302 303 300 293 279 252 228 219 215 212 214 214 213 213 207
116 116 121 128 129 122 114 112 115 115 108 102 99 100 107 116 118 117 118 120 122 128 128 121 119 121 114 81 105 105 81 54 48 29 349 330 333 339 338 338 338 336 334 336 339 339 335 331 331 330 329 331 333 334 334 332 329 326 324 324 324 322 321 320 318 316 314 312 311 311 312 311 309 302 278 234 212 210 210 206 203 199 192 184 179
117 117 121 123 119 110 103 105 110 112 109 105 99 93 95 103 105 104 108 110 109 109 109 107 105 105 96 82 82 75 57 44 41 10 328 313 319 329 332 335 335 332 332 335 339 340 337 335 336 338 339 340 341 343 343 342 337 331 328 329 329 328 327 327 326 325 325 324 321 319 317 316 316 316 283 201 187 185 182 177 170 165 163 163 164
104 105 106 104 100 96 93 93 96 97 96 95 92 85 82 87 89 89 94 97 94 91 91 90 93 100 98 87 74 61 48 39 24 348 321 314 318 321 324 329 332 331 330 332 335 338 339 338 340 343 346 347 348 351 352 350 344 339 338 339 338 338 338 336 335 338 339 332 325 322 324 327 332 340 19 150 152 151 153 154 153 153 156 157 156
91 92 93 92 90 87 85 83 84 84 83 83 83 80 77 77 77 76 76 77 78 80 82 85 88 87 84 77 69 52 35 19 4 340 323 320 321 320 319 323 326 329 330 329 331 336 339 340 341 344 348 349 350 353 356 357 354 353 355 355 352 352 350 344 343 350 352 345 338 338 343 347 353 7 67 118 125 129 134 139 144 147 146 143 144
82 83 84 85 85 84 82 80 78 78 76 74 73 73 72 72 73 74 73 72 74 80 89 95 87 76 70 65 51 30 12 354 342 330 322 323 325 326 323 320 322 328 330 330 332 337 340 341 342 345 350 353 354 354 357 360 1 1 5 6 5 2 357 351 353 3 4 358 355 1 10 16 22 36 68 99 109 112 115 121 127 130 129 128 131
75 75 76 77 79 80 79 78 76 76 76 74 73 73 74 75 75 76 75 75 77 79 79 75 67 63 57 45 30 16 352 339 340 334 326 326 330 333 331 325 324 328 330 331 335 338 339 342 345 347 351 357 359 360 1 4 5 5 8 11 11 7 3 3 8 14 17 14 15 25 45 60 64 67 75 88 98 104 109 113 118 120 121 123 126
68 69 69 71 72 73 74 75 76 76 77 77 77 76 75 74 74 73 72 73 72 67 63 59 57 55 49 33 20 7 347 342 342 332 329 331 334 336 337 336 334 333 332 334 338 338 339 345 350 350 352 359 4 7 8 8 7 7 9 13 14 12 11 15 21 27 33 36 36 40 54 67 73 77 83 90 96 100 102 105 107 113 119 122 124
63 65 67 69 70 72 74 76 76 76 77 78 78 77 75 74 73 70 66 64 60 54 52 51 48 44 37 25 12 1 352 348 340 333 334 336 335 338 344 344 342 341 340 340 342 340 339 346 352 353 355 4 11 14 14 12 10 9 11 16 22 23 21 24 30 38 45 51 54 56 62 70 73 75 79 86 93 95 96 97 99 104 112 118 120
61 63 64 65 68 70 72 73 74 76 78 78 78 79 77 74 71 67 62 58 53 47 45 44 42 37 31 22 10 0 353 347 339 333 335 335 335 344 350 350 350 351 345 342 346 347 344 347 354 358 2 9 15 18 17 16 15 14 15 20 27 32 32 34 39 45 53 61 65 69 73 76 75 72 71 78 87 91 92 94 96 99 103 108 112
Height
790 791 792 793 795 796 798 798 799 800 801 802 803 805 806 807 808 810 812 814 815 817 819 820 822 823 825 826 827 828 830 831 832 833 834 834 835 835 835 836 836 837 837 837 838 838 838 838 838 838 837 837 836 835 834 833 832 831 830 829 828 827 826 824 822 819 818 818 817 815 815 814 813 811 810 809 808 807 806 806 805 804 804 803 802
789 790 791 792 794 795 796 797 798 798 799 800 801 803 804 805 806 808 809 812 813 815 816 818 820 821 822 823 825 826 827 828 830 831 832 832 833 833 834 834 835 835 836 836 836 837 837 837 836 836 836 836 835 834 833 833 832 830 830 829 828 827 826 824 822 820 818 817 816 815 814 812 811 810 809 808 806 806 805 804 803 803 802 801 800
789 789 790 791 793 793 794 795 797 798 798 798 799 800 802 803 804 805 807 809 810 812 814 815 817 819 820 821 822 823 825 826 827 828 829 830 831 831 832 833 833 833 834 835 835 835 835 835 835 835 834 834 834 833 833 832 831 830 829 829 828 827 826 825 823 821 818 816 815 814 812 811 810 809 808 806 805 804 803 802 801 800 799 798 798
788 788 789 791 792 792 793 794 796 797 797 798 798 799 800 801 802 803 805 806 807 809 811 812 814 816 817 819 820 821 822 823 825 826 827 828 828 829 830 831 831 832 832 833 833 833 834 833 833 833 833 833 832 832 831 831 830 829 829 828 827 826 825 824 823 821 818 816 814 812 811 809 808 807 806 804 803 802 800 799 798 797 797 796 795
787 786 788 790 791 791 791 792 794 796 797 798 799 799 800 800 801 801 803 804 804 806 807 808 810 812 814 815 817 818 819 820 822 823 824 825 826 827 828 829 829 830 830 831 832 832 832 832 832 832 832 831 831 831 830 830 830 829 828 827 826 825 824 823 821 820 818 815 813 811 810 808 806 805 804 803 801 800 798 797 796 795 794 793 792
787 785 787 789 789 788 789 791 793 795 796 797 797 798 798 798 799 798 799 800 801 802 803 804 805 807 810 812 814 816 817 818 819 821 822 823 824 825 826 827 827 828 828 829 830 830 831 831 831 831 830 830 830 830 829 829 829 828 827 826 825 824 823 822 820 818 816 814 812 810 808 807 805 803 802 801 800 798 797 795 794 792 791 790 789
786 786 787 789 788 786 788 790 793 794 794 795 795 795 795 796 796 796 796 797 798 798 799 801 802 804 807 809 812 813 814 815 817 818 819 820 821 822 823 824 825 825 826 826 827 828 829 829 829 829 829 829 829 828 828 828 827 827 826 825 824 823 822 820 819 817 815 812 810 809 806 805 803 801 800 800 799 797 796 793 791 789 788 787 786
788 788 788 788 788 788 790 792 793 793 793 793 792 792 793 793 794 794 794 795 796 796 797 799 801 802 802 805 808 810 811 813 813 815 817 818 819 819 820 822 823 823 824 824 825 826 826 827 828 828 828 828 827 827 827 826 826 825 825 824 823 822 821 819 817 815 813 810 808 807 805 803 801 799 799 798 797 795 794 792 790 788 787 786 785
791 790 789 789 789 790 791 792 791 792 791 791 791 790 790 791 791 792 792 792 792 793 795 796 798 799 799 800 804 806 808 810 810 812 814 815 816 817 819 820 821 822 822 823 824 825 825 826 826 826 826 826 826 825 825 825 824 823 823 822 822 821 819 818 816 814 811 809 806 805 803 801 799 798 797 796 795 794 793 792 790 788 787 785 783
792 791 791 791 791 791 791 790 790 790 789 789 789 789 789 789 789 789 790 789 790 791 792 793 794 797 800 799 800 802 804 806 808 809 811 813 814 815 817 818 820 820 821 822 822 823 824 824 824 824 824 823 823 823 823 822 822 821 821 820 820 819 818 816 814 812 810 807 805 803 801 799 798 797 795 794 794 793 792 791 789 787 786 783 781
790 790 790 790 790 790 789 789 788 788 787 787 787 787 787 788 787 787 787 788 788 789 789 790 791 795 799 799 798 799 801 803 805 807 809 811 813 814 815 817 819 819 819 820 821 822 822 823 823 822 821 821 821 820 820 819 819 818 818 817 817 817 816 815 813 811 809 806 804 802 799 797 797 796 795 793 793 792 791 790 788 786 784 781 779
788 788 788 788 787 787 787 786 786 785 785 785 785 786 786 786 786 786 786 787 788 787 787 788 789 792 796 798 798 799 801 802 804 807 809 810 811 812 814 816 817 818 818 818 819 820 820 821 821 820 820 819 819 818 817 816 815 815 814 814 813 813 812 812 811 810 808 805 803 801 798 796 795 794 794 793 791 790 789 788 787 785 783 781 778
787 787 787 786 785 785 785 784 784 784 784 783 783 784 784 784 783 784 785 786 787 786 786 787 788 789 791 793 795 797 800 802 804 807 808 809 810 812 814 815 815 816 816 816 817 818 818 819 818 818 818 817 816 816 815 815 813 812 811 810 809 808 807 807 807 807 806 804 802 799 797 796 794 793 793 792 791 790 788 787 785 784 782 780 778
787 786 786 785 785 784 784 783 783 782 782 781 781 781 781 781 781 781 782 783 784 784 784 785 787 788 789 791 793 795 798 800 803 806 807 808 809 811 813 814 814 815 815 815 816 816 816 817 816 816 816 815 814 814 813 813 811 810 809 807 805 804 803 803 802 802 802 802 800 797 796 795 793 792 792 791 790 789 788 786 785 783 781 778 776
785 785 784 784 783 783 782 782 781 780 779 779 778 777 777 778 779 779 780 780 781 782 783 784 785 786 788 791 793 795 797 800 803 805 806 807 809 810 812 812 813 814 814 814 814 814 814 814 814 813 813 812 812 811 811 810 809 807 806 804 802 801 800 799 799 798 798 797 795 794 794 793 792 791 790 790 789 788 786 785 784 783 781 778 775
782 782 781 781 781 781 780 780 779 778 777 776 775 775 775 775 776 777 778 778 779 779 781 782 784 786 788 791 793 795 798 801 803 804 805 807 808 809 810 811 812 812 812 812 812 812 812 812 811 811 810 810 809 808 808 807 806 804 802 800 799 798 796 796 795 794 793 792 791 790 789 788 788 787 787 787 786 785 785 783 782 782 780 776 773
780 779 779 779 779 778 778 777 776 775 774 774 773 773 773 773 774 775 776 777 777 777 778 781 784 786 788 791 793 796 799 801 803 803 804 805 806 807 809 810 810 810 810 810 810 810 810 809 809 809 808 807 807 806 805 804 803 801 799 797 796 794 793 792 791 789 789 788 787 786 785 784 783 782 783 783 783 784 784 780 779 779 776 772 769
778 777 777 777 777 776 776 775 774 773 772 771 771 771 771 772 772 773 774 775 775 776 777 780 783 785 787 789 793 796 798 800 801 802 803 804 805 806 808 808 808 808 808 808 808 807 807 806 806 806 805 804 804 803 803 802 801 799 797 794 793 791 789 789 787 786 785 784 783 782 781 781 780 779 779 779 779 781 780 777 777 777 772 768 766
776 776 775 775 775 774 774 773 772 771 770 769 769 769 770 770 771 771 772 773 773 775 777 779 781 784 786 789 791 793 795 797 799 801 802 803 803 805 807 806 806 806 806 806 805 805 804 803 802 802 801 801 801 800 799 799 798 797 795 793 790 788 787 786 785 783 782 781 780 779 777 777 776 775 774 774 774 776 775 773 774 773 768 765 765
774 774 774 773 773 772 772 771 770 769 768 767 767 768 768 769 769 770 770 770 771 774 776 778 781 784 787 789 791 792 793 796 798 800 801 802 803 804 805 805 805 804 804 803 803 802 801 801 800 799 797 797 797 796 796 795 794 794 793 791 788 786 785 784 782 781 780 778 777 776 774 773 772 771 770 770 769 770 769 769 769 768 765 763 762
772 772 771 771 770 770 769 769 768 767 767 766 766 766 767 768 768 769 769 770 771 774 775 777 781 784 787 790 792 793 794 796 798 799 800 801 801 802 803 803 803 803 803 802 801 800 798 798 798 797 795 794 794 793 792 791 791 790 790 788 785 784 784 782 780 779 777 775 774 772 771 770 769 767 766 766 765 764 764 763 763 763 761 760 759
769 769 768 768 767 767 767 767 766 765 765 765 765 765 765 766 767 768 770 770 771 773 775 777 781 784 787 790 793 794 794 796 798 799 799 799 799 800 801 802 802 801 801 800 799 798 796 796 796 794 792 791 791 789 788 788 787 785 784 783 782 781 781 779 777 776 774 772 770 769 767 766 764 763 762 761 760 760 759 758 758 757 756 756 755
767 766 765 765 764 764 764 764 764 763 763 763 763 763 764 765 766 767 769 770 771 772 775 778 782 785 787 791 793 794 794 795 796 797 798 798 798 798 799 800 799 800 799 798 797 796 794 794 793 790 788 788 787 786 785 784 782 781 779 778 777 777 777 775 773 771 769 768 766 764 763 762 760 759 758 757 756 755 755 754 753 753 752 751 751
764 763 763 762 762 762 762 762 761 761 760 761 761 761 762 764 765 766 767 769 772 774 777 779 782 786 789 791 792 792 793 794 795 796 797 797 797 798 798 797 797 797 796 796 795 794 792 791 789 787 786 785 784 782 781 779 778 776 775 774 773 773 772 770 768 766 764 763 761 760 758 757 756 754 753 753 752 751 751 750 750 749 748 748 747
760 760 760 759 759 759 759 760 760 759 758 759 759 759 761 762 764 766 768 769 772 776 779 781 783 785 788 789 789 790 791 792 794 795 796 797 796 796 795 795 795 794 794 793 792 791 790 788 786 785 784 782 780 778 777 775 773 772 771 770 769 768 767 765 763 762 759 758 756 755 753 752 751 749 749 749 748 747 747 746 746 745 745 744 743
756 756 756 756 756 757 757 757 758 757 757 757 757 758 759 761 762 765 768 770 772 775 780 782 783 783 785 787 787 789 790 792 794 795 796 795 794 794 793 793 792 792 791 790 789 787 786 785 784 782 781 779 777 776 773 771 770 768 767 766 764 763 762 760 758 757 755 753 751 750 749 748 747 746 745 745 744 743 743 742 741 741 740 740 738
753 753 753 753 754 754 754 755 755 755 756 756 757 758 759 759 761 764 767 770 773 775 778 781 782 783 785 786 787 788 790 791 793 795 794 794 794 793 792 792 791 790 789 788 787 785 784 783 781 779 778 776 774 773 770 768 766 764 763 762 760 759 757 756 754 752 750 749 747 745 745 744 743 742 741 740 739 739 738 738 737 736 736 736 734
749 749 750 751 751 751 751 752 753 754 755 755 756 758 759 760 762 764 767 769 772 775 777 780 783 784 785 785 786 787 789 791 792 793 793 793 793 792 792 792 791 790 788 787 785 784 782 780 778 777 775 774 772 770 768 766 763 762 760 758 756 755 754 752 750 749 746 745 743 741 740 740 738 738 737 736 735 734 734 734 733 732 732 732 730
745 746 747 747 747 748 748 749 751 752 754 755 757 759 761 762 764 767 770 771 773 776 778 780 783 785 785 785 785 787 788 790 791 791 791 791 791 791 791 790 789 788 786 785 783 782 780 778 777 775 774 772 770 768 765 763 761 759 757 755 753 752 750 749 747 744 743 741 739 737 736 735 734 733 733 731 730 730 730 729 728 728 728 727 726
740 741 743 744 744 744 745 747 749 751 753 755 756 758 761 764 765 767 770 773 774 777 779 780 781 783 784 784 785 786 788 789 790 790 790 791 790 790 789 788 787 786 784 783 781 780 778 776 775 774 772 770 768 766 763 761 758 756 754 752 751 749 747 745 743 741 739 738 736 734 733 732 730 729 728 727 725 725 725 725 724 724 724 723 722
735 736 738 739 740 741 743 745 748 750 752 753 755 757 761 764 767 769 771 773 775 777 779 780 780 781 782 783 785 787 788 789 790 790 790 790 790 788 787 786 785 784 783 782 781 779 777 775 774 772 771 769 766 764 761 759 756 753 751 749 747 745 743 741 739 738 736 734 732 730 729 727 726 724 723 722 721 721 720 720 719 719 718 718 717
730 731 733 735 737 739 741 744 747 749 752 753 755 758 760 764 768 772 773 775 777 779 780 780 780 780 782 784 785 787 788 789 790 790 790 789 788 787 786 785 784 784 783 781 780 778 776 775 773 771 769 767 764 762 759 756 753 751 748 746 744 742 740 737 736 734 732 730 728 726 724 723 721 720 718 717 716 716 715 714 714 714 714 713 713
725 727 730 732 735 737 740 743 745 748 752 755 757 759 762 764 768 773 775 776 778 779 779 779 780 781 783 784 786 787 788 789 790 790 789 788 787 786 786 785 784 783 782 781 779 778 776 774 772 770 768 766 763 760 757 754 752 749 746 743 741 738 736 734 732 729 727 725 723 721 719 718 717 715 714 713 712 711 710 710 710 710 710 709 709
721 724 726 729 733 736 739 743 746 748 751 755 757 760 762 764 768 772 775 776 778 778 778 780 781 782 784 785 786 788 789 789 789 789 788 787 786 786 785 784 783 782 782 780 779 777 775 773 771 769 767 764 761 758 755 753 750 747 744 741 738 735 732 730 727 725 723 721 719 717 715 713 712 711 709 708 707 706 706 705 705 706 705 705 705
718 722 725 728 732 736 739 743 746 748 750 753 757 761 764 766 769 771 774 775 776 777 779 781 783 784 785 786 787 788 788 789 789 788 788 787 786 785 784 783 783 782 781 780 778 776 775 773 770 768 765 763 760 757 754 750 747 744 741 738 735 731 729 726 723 721 719 717 715 713 711 709 708 707 705 704 703 702 701 701 701 701 702 702 702
718 722 726 730 733 736 739 742 745 748 751 754 759 763 766 768 770 771 773 774 775 777 780 782 784 785 786 787 787 788 788 788 788 788 788 787 786 785 784 784 783 783 781 780 778 776 774 772 769 767 764 761 758 755 752 749 745 742 739 735 732 728 725 722 720 717 715 713 711 709 707 705 704 702 701 700 698 698 697 697 697 698 698 699 699
720 724 728 731 735 738 741 744 748 752 754 757 761 764 766 768 769 770 772 773 775 777 779 782 784 785 786 787 787 788 788 788 788 788 787 786 785 785 785 784 784 782 781 779 777 775 773 770 768 765 763 760 756 753 750 747 743 740 736 732 729 726 722 719 717 714 712 709 707 705 703 701 699 698 697 695 694 694 693 693 694 695 695 696 696
723 727 730 733 737 740 744 748 751 755 757 759 761 763 765 767 768 769 771 773 775 777 779 780 782 784 785 786 787 788 788 788 787 787 786 785 785 786 785 784 784 782 780 779 777 774 772 769 767 765 762 758 755 752 748 745 741 737 733 730 726 723 719 716 713 711 708 706 703 701 699 697 695 694 693 691 690 690 690 690 691 692 692 693 693
727 731 734 737 740 743 746 749 753 756 758 759 761 763 765 766 768 769 771 773 774 776 777 779 781 783 784 786 787 787 787 786 786 786 786 785 785 786 785 784 783 782 780 778 776 774 772 769 767 764 761 757 754 750 747 743 740 736 732 728 724 720 717 713 710 707 705 702 699 697 695 693 691 690 689 688 687 686 686 687 688 689 689 690 690
732 735 738 741 744 746 748 751 754 756 758 760 761 763 765 767 768 769 771 772 774 776 777 779 781 783 785 786 786 786 786 786 786 786 786 785 785 786 785 784 783 782 780 778 776 774 772 769 766 763 759 756 753 749 746 742 738 734 730 726 722 718 714 710 707 705 702 699 697 694 692 690 688 687 685 684 683 683 684 684 685 686 687 687 687
736 739 741 744 746 748 751 753 755 757 759 760 762 764 766 767 768 769 771 773 774 776 778 780 782 783 784 785 785 785 785 786 786 786 786 786 786 785 785 784 783 781 780 778 775 774 772 769 766 762 759 755 752 748 744 741 737 732 728 724 720 716 712 708 705 702 699 697 694 692 689 687 685 684 682 681 681 681 682 682 683 684 684 685 685
740 742 745 747 749 751 753 755 756 758 760 762 763 765 766 767 768 770 772 774 776 778 779 781 783 783 784 784 784 785 785 786 786 786 786 786 786 785 784 784 782 781 779 777 775 774 771 768 765 762 758 755 751 747 743 739 735 731 727 722 718 714 710 706 703 700 697 695 692 689 687 685 683 681 680 679 679 680 680 681 681 682 682 683 684
743 745 747 750 752 753 755 756 758 760 761 763 765 766 767 769 770 772 774 776 777 779 780 781 782 783 783 783 783 785 785 785 785 785 786 786 785 785 784 783 781 780 779 777 775 773 771 768 764 761 758 754 750 746 742 738 734 730 726 721 717 712 708 704 701 698 695 692 690 687 685 683 681 680 679 678 678 679 679 679 680 680 681 682 682
745 747 750 752 753 755 756 758 760 761 763 764 766 768 769 770 772 774 775 777 778 779 780 781 782 782 782 783 784 785 785 785 785 786 786 785 785 784 783 782 781 779 778 776 774 772 770 767 764 761 757 753 749 745 741 737 733 729 725 721 716 712 707 703 699 696 694 691 688 686 684 682 680 679 678 677 677 678 678 679 679 680 680 681 682
749 750 752 754 755 757 759 760 762 763 765 767 768 770 771 772 774 775 777 779 779 780 780 781 782 782 782 783 784 785 785 785 785 785 785 785 784 783 782 781 780 778 776 775 773 771 769 767 764 760 757 753 749 745 741 736 733 729 725 720 716 711 707 703 699 696 693 690 688 686 684 682 680 679 678 677 677 677 678 678 679 679 680 681 682
752 753 754 756 758 760 761 763 764 766 767 769 771 772 773 775 776 778 779 779 780 781 781 782 783 782 782 783 784 784 785 785 785 785 785 784 783 782 781 780 779 777 776 774 772 771 769 766 763 760 757 753 749 745 741 737 732 728 724 720 716 712 707 703 699 696 693 690 688 686 684 682 681 680 679 678 678 677 678 678 679 680 680 681 682
754 756 757 759 760 762 763 765 767 768 770 772 773 774 776 777 778 780 780 781 781 782 783 783 783 782 782 783 784 784 784 785 784 784 784 783 782 781 780 778 777 776 775 773 772 770 768 766 763 761 758 754 750 746 742 737 733 728 724 720 716 712 707 703 699 696 693 691 689 687 685 683 682 681 680 679 678 678 678 679 680 681 681 682 683
757 759 760 761 763 765 766 768 769 771 772 774 775 776 778 779 781 781 782 782 783 784 784 783 782 782 783 783 784 784 784 784 784 783 783 782 781 780 779 777 776 776 774 773 771 770 768 766 764 761 758 755 751 747 743 738 734 729 725 720 716 712 708 704 700 697 694 692 690 688 686 685 683 682 681 681 680 680 680 680 681 682 682 683 685
761 762 763 764 766 767 769 771 772 773 775 776 778 779 780 781 782 783 783 783 784 784 784 783 782 782 783 784 784 784 784 784 784 783 783 781 780 779 778 777 776 775 774 772 771 770 768 766 764 762 759 756 753 748 744 740 735 731 726 722 718 714 710 706 702 699 696 693 692 690 688 687 686 684 684 683 683 682 683 683 684 684 685 686 687
764 765 766 768 769 770 772 773 774 775 777 778 780 781 782 783 784 784 784 784 785 784 784 783 783 783 784 784 784 784 784 784 784 783 782 781 780 778 777 776 775 774 773 772 771 770 768 766 764 762 760 757 754 749 745 742 738 733 729 724 720 716 712 709 705 702 699 696 694 693 691 690 689 688 687 687 686 686 686 686 687 688 688 689 691
767 768 770 771 772 773 774 775 776 778 779 780 781 783 784 784 785 785 785 785 786 786 785 785 784 784 785 785 785 784 784 784 783 783 782 781 779 778 777 776 775 774 773 772 771 770 768 766 765 764 761 758 754 751 747 743 740 736 732 727 723 719 715 712 709 706 703 700 698 696 695 693 692 691 691 690 690 689 689 690 690 691 692 693 694